This demonstration page uses our WeatherBlox Daily Observations layout. Learn more.

Left ArrowRight Arrow

Hourly Observations for October 15, 2018

Temp ( °F °C ) Dew Point ( °F °C ) Humidity (%) Winds ( mph kmh ) Pressure ( in mb ) Visibility ( mi km ) Precip ( " mm )
12:54 am 00:54 Cloudy 33 0.6 26 -3.3 75 75 WNW 9 15 30.4 1029 10 16.0934 0 0
1:54 am 01:54 Cloudy 33 0.6 26 -3.3 75 75 WNW 7 11 30.4 1030 10 16.0934 0 0
2:54 am 02:54 Cloudy 33 0.6 26 -3.3 75 75 NW 8 13 30.4 1029 10 16.0934 0 0
3:54 am 03:54 Cloudy 33 0.6 26 -3.3 75 75 NW 7 11 30.4 1029 10 16.0934 0 0
4:54 am 04:54 Cloudy 34 1.1 25 -3.9 70 70 NW 7 11 30.4 1029 10 16.0934 0 0
5:02 am 05:02 Cloudy 34 1.1 25 -3.9 70 70 NW 7 11 30.39 1029 10 16.0934 0 0
5:24 am 05:24 Cloudy 34 1.1 24 -4.4 67 67 NW 9 15 30.39 1029 10 16.0934 0 0
5:54 am 05:54 Clear 32 0 24 -4.4 73 73 WNW 5 7 30.4 1030 10 16.0934 0 0
6:54 am 06:54 Clear 30 -1.1 24 -4.4 79 79 WNW 7 11 30.41 1030 10 16.0934 0 0
7:54 am 07:54 Sunny 29 -1.7 22 -5.6 75 75 W 6 9 30.42 1030 10 16.0934 0 0
8:54 am 08:54 Sunny 31 -0.6 23 -5 72 72 WNW 8 13 30.44 1031 10 16.0934 0 0
9:54 am 09:54 Sunny 34 1.1 24 -4.4 67 67 WNW 6 9 30.45 1031 10 16.0934 0 0
10:54 am 10:54 Sunny 37 2.8 24 -4.4 59 59 W 8 13 30.45 1031 10 16.0934 0 0
11:54 am 11:54 Sunny 39 3.9 24 -4.4 55 55 W 7 11 30.45 1031 10 16.0934 0 0
12:54 pm 12:54 Sunny 41 5 24 -4.4 51 51 W 8 13 30.45 1031 10 16.0934 0 0
1:54 pm 13:54 Sunny 42 5.6 25 -3.9 51 51 W 8 13 30.42 1030 10 16.0934 0 0
2:54 pm 14:54 Sunny 44 6.7 24 -4.4 45 45 W 12 19 30.39 1029 10 16.0934 0 0
3:54 pm 15:54 Sunny 45 7.2 26 -3.3 48 48 W 10 17 30.38 1029 10 16.0934 0 0
4:54 pm 16:54 Sunny 46 7.8 25 -3.9 44 44 WSW 12 19 30.35 1028 10 16.0934 0 0
5:54 pm 17:54 Sunny 45 7.2 26 -3.3 48 48 SW 13 20 30.35 1028 10 16.0934 0 0
6:54 pm 18:54 Clear 41 5 27 -2.8 57 57 SSW 7 11 30.35 1028 10 16.0934 0 0
7:54 pm 19:54 Clear 35 1.7 27 -2.8 72 72 SSW 8 13 30.36 1028 10 16.0934 0 0
8:54 pm 20:54 Clear 36 2.2 27 -2.8 70 70 SSW 7 11 30.35 1028 10 16.0934 0 0
9:54 pm 21:54 Clear 34 1.1 27 -2.8 76 76 SSW 8 13 30.33 1027 10 16.0934 0 0
10:54 pm 22:54 Clear 35 1.7 27 -2.8 72 72 SSW 7 11 30.31 1027 10 16.0934 0 0
11:54 pm 23:54 Clear 36 2.2 27 -2.8 70 70 SSW 3 6 30.31 1026 10 16.0934 0 0

Powered by AerisWeather